[[{"header":{"parameterUnit":"m.s-1","parameterCategory":1,"la1":30.2991,"la2":30.254,"lo1":-89.0895,"lo2":-89.0444,"dy":0.0017,"dx":0.0017,"nx":28,"ny":28,"refTime":"2025-09-04T09:00:00:Z","depth":0,"parameterNumber":2,"parameterNumberName":"U-component_of_WINDS"},"data":[0,0,0,0,0,0,0,0,0,0,0,0,0,0,0,0,0,0,0,0,0,0,0,0,0,0,0,0,0,0,0,0,0,0,0,0,0,0,0,0,0,0,0,0,0,0,0,0,0,0,0,0,0,0,0,0,0,0,0.8508,0.8508,0,0.8498,0.8498,0.8498,0.8447,0.8446,0.8444,0.8443,0.8433,0.8434,0.8435,0,0,0,0,0,0,0,0,0,0,0,0,0,0.8481,0.8482,0.8508,0.8508,0.8507,0.8498,0.8498,0.8498,0.8447,0.8445,0.8444,0.8443,0.8433,0.8434,0.8435,0,0,0,0,0,0,0,0,0,0,0,0,0,0.8484,0.8482,0.8508,0.8481,0.8478,0.8498,0.8498,0.8498,0.8447,0.8445,0.8444,0.8442,0.8433,0.8434,0.8435,0.848,0,0,0.8439,0.844,0,0,0,0,0,0,0,0,0.8484,0.8485,0.8485,0.8483,0.848,0.8472,0.8485,0.8492,0.8448,0.8459,0.8443,0.8441,0.8447,0.8447,0.845,0.8479,0.8479,0.8439,0.844,0.8441,0.8441,0,0,0,0,0,0,0,0.8484,0.8486,0.8504,0.8485,0.8482,0.8469,0.8468,0.8486,0.8464,0.8458,0.8454,0.8454,0.8446,0.8449,0.8449,0.8479,0.8439,0.844,0.8441,0.8442,0.8542,0.8544,0,0,0,0,0,0,0.8488,0.8486,0.8504,0.8503,0.8478,0.8471,0.8469,0.8476,0.8463,0.846,0.8455,0.8451,0.8447,0.8448,0.8448,0.8498,0.8441,0.8442,0.8443,0.854,0.8542,0.8544,0,0,0,0,0,0,0.8487,0.849,0.8504,0.8494,0.8494,0.8474,0.8482,0.8477,0.848,0.8461,0.8457,0.8462,0.8446,0.8447,0.8472,0.8497,0.8442,0.8444,0.8538,0.8541,0.8543,0.8598,0,0,0,0,0,0,0.8487,0.849,0.8507,0.8494,0.8495,0.8528,0.8483,0.8478,0.8482,0.8477,0.8467,0.8463,0.8444,0.847,0.8473,0.8497,0.8445,0.8535,0.8539,0.8542,0.8594,0.8602,0.861,0,0,0,0,0,0.8486,0.8523,0.8508,0.8511,0.8516,0.853,0.853,0.8508,0.8484,0.8501,0.8489,0.8464,0.8494,0.8473,0.8476,0.8501,0.8534,0.8538,0.8542,0.859,0.8601,0.8609,0,0,0,0,0,0,0.854,0.8521,0.8504,0.8538,0.8536,0.8521,0.8541,0.852,0.8524,0.8519,0.8491,0.849,0.8518,0.8513,0.849,0.8543,0.8509,0.8514,0.8545,0.8555,0.8562,0.8562,0.8446,0,0,0,0,0,0.8556,0.8569,0.8552,0.8583,0.8583,0.8563,0.8568,0.8551,0.8547,0.8546,0.8536,0.8533,0.8542,0.8548,0.8556,0.8593,0.8589,0.8612,0.862,0.8627,0.8631,0.8648,0.8657,0.8558,0.8558,0.8558,0,0,0.8588,0.858,0.859,0.8594,0.859,0.8603,0.8562,0.8579,0.8588,0.8549,0.8571,0.8564,0.8559,0.859,0.8603,0.8586,0.8657,0.8632,0.8637,0.8638,0.8653,0.8663,0.8671,0.8561,0.8561,0.856,0,0,0.8654,0.865,0.8675,0.8672,0.8666,0.8652,0.8658,0.8647,0.864,0.8662,0.8632,0.8643,0.8659,0.8656,0.8657,0.8721,0.8697,0.8725,0.8765,0.8782,0.879,0.8797,0.8818,0.8826,0.8729,0.8729,0.8729,0,0.8695,0.8714,0.869,0.8708,0.871,0.8675,0.8699,0.8698,0.8695,0.8697,0.8678,0.8696,0.8691,0.872,0.8735,0.8738,0.8743,0.8725,0.8791,0.8798,0.8803,0.8823,0.8831,0.8732,0.8732,0.8732,0.8731,0,0.8764,0.8778,0.8799,0.8796,0.8801,0.8822,0.8801,0.8808,0.8791,0.8779,0.8801,0.8793,0.8797,0.8803,0.8787,0.8829,0.8818,0.8796,0.8762,0.8816,0.8834,0.8841,0.8737,0.8736,0.8735,0.8734,0,0,0.8863,0.8846,0.8854,0.8852,0.8843,0.8853,0.8872,0.8876,0.8882,0.8881,0.8896,0.891,0.8888,0.8889,0.8872,0.8888,0.8936,0.8863,0.8862,0.8875,0.898,0.8995,0.9005,0.8921,0.8923,0.8924,0.898,0,0.8924,0.8955,0.8934,0.8968,0.898,0.8946,0.8963,0.8959,0.8948,0.8956,0.8944,0.8954,0.8926,0.8926,0.894,0.8927,0.8957,0.8923,0.8933,0.8933,0.8933,0.9014,0.9031,0.9084,0.8987,0.8988,0.8989,0,0.8999,0.9001,0.9037,0.9024,0.9028,0.9043,0.9044,0.9052,0.9047,0.9037,0.9038,0.9017,0.9034,0.9002,0.9024,0.9002,0.9005,0.8999,0.9001,0.8999,0.8963,0.9012,0.9101,0.9108,0.9,0.8999,0.8998,0,0.9065,0.9076,0.9098,0.9098,0.9084,0.9095,0.909,0.9083,0.9086,0.9087,0.9088,0.9092,0.9093,0.9096,0.9075,0.9054,0.91,0.9066,0.9091,0.9092,0.9101,0.91,0.9188,0.9107,0.9106,0.9106,0.9106,0,0.9134,0.9156,0.9127,0.9141,0.9164,0.914,0.9164,0.9155,0.9149,0.916,0.9132,0.9143,0.9116,0.9124,0.9108,0.9128,0.9129,0.9122,0.9117,0.9123,0.9123,0.9123,0.9117,0.9108,0.9108,0.9107,0.9107,0,0.921,0.9192,0.9213,0.9198,0.9195,0.9213,0.92,0.9211,0.9199,0.9213,0.9214,0.9195,0.9202,0.9182,0.9188,0.9177,0.9204,0.9195,0.9206,0.9202,0.9227,0.9224,0.9316,0.9326,0.9241,0.9241,0.9242,0,0.9254,0.9271,0.9257,0.9262,0.9258,0.9267,0.9269,0.9246,0.925,0.9244,0.9256,0.9261,0.9264,0.9277,0.9263,0.9266,0.9255,0.9287,0.9255,0.926,0.9252,0.9251,0.9251,0.9293,0.9294,0.9295,0.9295,0,0.9334,0.9324,0.9329,0.933,0.9334,0.9334,0.9332,0.9338,0.9313,0.9318,0.9325,0.9327,0.9332,0.9336,0.9336,0.933,0.9308,0.9306,0.9311,0.9316,0.9321,0.9316,0.9221,0.9303,0.9302,0.9302,0.9301,0.9301,0.9394,0.9406,0.9398,0.9404,0.94,0.9398,0.9408,0.9396,0.9401,0.9403,0.9389,0.9398,0.9391,0.9389,0.9385,0.9392,0.9377,0.9386,0.9387,0.9389,0.9392,0.9322,0.9392,0.9392,0.9391,0.9391,0.9391,0,0.947,0.9463,0.9469,0.9466,0.9471,0.945,0.9447,0.9452,0.946,0.9456,0.9458,0.9466,0.947,0.9456,0.9458,0.9466,0.9456,0.9467,0.9465,0.9464,0.9407,0.94,0.9475,0.9475,0.9475,0.9475,0.9475,0.9475,0.951,0.9528,0.9517,0.9533,0.9526,0.9535,0.9534,0.9533,0.9528,0.9538,0.9541,0.9532,0.9523,0.9524,0.9527,0.9523,0.9524,0.9538,0.953,0.9476,0.9468,0.946,0.9454,0.9539,0.9539,0.9586,0.9587,0.9587]},{"header":{"parameterUnit":"m.s-1","parameterCategory":1,"la1":30.2991,"la2":30.254,"lo1":-89.0895,"lo2":-89.0444,"dy":0.0017,"dx":0.0017,"nx":28,"ny":28,"refTime":"2025-09-04T09:00:00:Z","depth":0,"parameterNumber":3,"parameterNumberName":"V-component_of_WINDS"},"data":[0,0,0,0,0,0,0,0,0,0,0,0,0,0,0,0,0,0,0,0,0,0,0,0,0,0,0,0,0,0,0,0,0,0,0,0,0,0,0,0,0,0,0,0,0,0,0,0,0,0,0,0,0,0,0,0,0,0,-0.8086,-0.8085,0,-0.8027,-0.8026,-0.8026,-0.8024,-0.8025,-0.8025,-0.8026,-0.7963,-0.7961,-0.7958,0,0,0,0,0,0,0,0,0,0,0,0,0,-0.8193,-0.8191,-0.8086,-0.8085,-0.8084,-0.8027,-0.8026,-0.8026,-0.8024,-0.8025,-0.8026,-0.8026,-0.7964,-0.7961,-0.7958,0,0,0,0,0,0,0,0,0,0,0,0,0,-0.8142,-0.819,-0.8086,-0.8076,-0.8075,-0.8027,-0.8026,-0.8025,-0.8024,-0.8025,-0.8026,-0.8027,-0.7965,-0.7961,-0.7958,-0.7914,0,0,-0.7947,-0.7945,0,0,0,0,0,0,0,0,-0.8145,-0.8138,-0.8079,-0.8077,-0.8075,-0.8034,-0.8041,-0.7988,-0.8023,-0.8043,-0.8026,-0.8027,-0.7986,-0.798,-0.7967,-0.7911,-0.7909,-0.7947,-0.7945,-0.7943,-0.7942,0,0,0,0,0,0,0,-0.8148,-0.814,-0.8062,-0.8078,-0.8076,-0.8074,-0.8068,-0.8031,-0.8009,-0.8041,-0.8041,-0.8035,-0.7985,-0.797,-0.7965,-0.7908,-0.7947,-0.7944,-0.7941,-0.794,-0.7814,-0.7813,0,0,0,0,0,0,-0.8154,-0.8143,-0.8064,-0.8061,-0.8113,-0.8072,-0.8065,-0.8046,-0.8009,-0.8005,-0.8034,-0.8035,-0.7976,-0.797,-0.7963,-0.791,-0.7943,-0.794,-0.7938,-0.7815,-0.7814,-0.7813,0,0,0,0,0,0,-0.8156,-0.8147,-0.8067,-0.8102,-0.8092,-0.8069,-0.8048,-0.8044,-0.803,-0.8003,-0.7999,-0.8023,-0.7976,-0.7968,-0.7927,-0.7908,-0.7938,-0.7935,-0.7817,-0.7815,-0.7813,-0.7803,0,0,0,0,0,0,-0.8159,-0.8148,-0.8131,-0.8102,-0.809,-0.8032,-0.8047,-0.8043,-0.8024,-0.8025,-0.7992,-0.7988,-0.7977,-0.7932,-0.7923,-0.7903,-0.7932,-0.7818,-0.7816,-0.7814,-0.7805,-0.7801,-0.7798,0,0,0,0,0,-0.8163,-0.813,-0.8131,-0.8121,-0.8069,-0.8031,-0.8024,-0.8012,-0.8023,-0.8006,-0.7989,-0.7989,-0.7912,-0.7928,-0.7918,-0.7897,-0.782,-0.7817,-0.7814,-0.7807,-0.7802,-0.7798,0,0,0,0,0,0,-0.8157,-0.8126,-0.8126,-0.8083,-0.806,-0.8031,-0.8009,-0.8008,-0.798,-0.7982,-0.7968,-0.7961,-0.792,-0.7904,-0.7923,-0.7853,-0.7867,-0.7862,-0.7864,-0.786,-0.7856,-0.786,-0.7929,0,0,0,0,0,-0.8151,-0.8123,-0.8097,-0.8061,-0.805,-0.8031,-0.8014,-0.8008,-0.7983,-0.7973,-0.7953,-0.7927,-0.7898,-0.7878,-0.7849,-0.7803,-0.7796,-0.7784,-0.778,-0.7778,-0.7773,-0.7748,-0.7742,-0.7803,-0.7804,-0.7804,0,0,-0.8137,-0.8117,-0.81,-0.806,-0.8041,-0.8012,-0.8023,-0.7992,-0.797,-0.7967,-0.7927,-0.7912,-0.7883,-0.784,-0.7819,-0.7825,-0.7755,-0.7774,-0.7772,-0.7769,-0.7744,-0.7739,-0.7733,-0.7802,-0.7802,-0.7802,0,0,-0.8097,-0.8079,-0.8048,-0.8029,-0.8001,-0.7989,-0.7982,-0.7953,-0.7943,-0.7904,-0.7901,-0.7875,-0.7824,-0.7803,-0.7786,-0.774,-0.7739,-0.7731,-0.7712,-0.7688,-0.7683,-0.7678,-0.7662,-0.7656,-0.7727,-0.7727,-0.7727,0,-0.8083,-0.804,-0.8031,-0.8,-0.7982,-0.7981,-0.7948,-0.793,-0.7894,-0.7881,-0.7889,-0.7825,-0.7805,-0.7757,-0.7746,-0.7733,-0.7723,-0.7734,-0.7684,-0.768,-0.7676,-0.7659,-0.7653,-0.7726,-0.7726,-0.7727,-0.7727,0,-0.8024,-0.7995,-0.7972,-0.7939,-0.7918,-0.7887,-0.7872,-0.7853,-0.7848,-0.7836,-0.7795,-0.7772,-0.7738,-0.7727,-0.7721,-0.7678,-0.7682,-0.7687,-0.7701,-0.7669,-0.7654,-0.7647,-0.7725,-0.7725,-0.7726,-0.7726,0,0,-0.7977,-0.794,-0.7932,-0.7917,-0.7887,-0.7863,-0.7832,-0.78,-0.7783,-0.7759,-0.7731,-0.7689,-0.7694,-0.7675,-0.7667,-0.7646,-0.7611,-0.7654,-0.7653,-0.7646,-0.7561,-0.7557,-0.755,-0.7611,-0.761,-0.7609,-0.7564,0,-0.7933,-0.7878,-0.7869,-0.782,-0.7792,-0.7791,-0.7764,-0.7742,-0.7729,-0.7704,-0.769,-0.766,-0.7669,-0.7657,-0.7636,-0.762,-0.7594,-0.7623,-0.7584,-0.7583,-0.7591,-0.7542,-0.7537,-0.7495,-0.7557,-0.7556,-0.7556,0,-0.7875,-0.785,-0.7798,-0.7773,-0.7761,-0.7736,-0.7707,-0.7683,-0.7658,-0.7651,-0.763,-0.7626,-0.7592,-0.7608,-0.7562,-0.7582,-0.7566,-0.7556,-0.7554,-0.7549,-0.7567,-0.7535,-0.7482,-0.7475,-0.7546,-0.7547,-0.7548,0,-0.7845,-0.7799,-0.7762,-0.7749,-0.7718,-0.7701,-0.7687,-0.7664,-0.7646,-0.762,-0.7608,-0.7579,-0.7562,-0.7539,-0.7527,-0.754,-0.7482,-0.7496,-0.7474,-0.7474,-0.746,-0.7461,-0.7403,-0.7451,-0.7452,-0.7452,-0.7452,0,-0.7796,-0.7764,-0.7748,-0.7725,-0.769,-0.768,-0.7645,-0.7632,-0.7611,-0.7585,-0.7583,-0.7558,-0.7544,-0.7518,-0.7508,-0.7471,-0.7464,-0.7456,-0.7454,-0.7456,-0.7457,-0.7444,-0.7446,-0.745,-0.745,-0.7451,-0.7451,0,-0.7756,-0.7744,-0.7704,-0.7679,-0.7672,-0.7647,-0.7625,-0.7602,-0.7591,-0.7558,-0.755,-0.7532,-0.7501,-0.7487,-0.7448,-0.7442,-0.7399,-0.7399,-0.7408,-0.7407,-0.7384,-0.7386,-0.7315,-0.7305,-0.7361,-0.7361,-0.736,0,-0.7725,-0.7701,-0.7674,-0.7657,-0.7643,-0.7616,-0.7598,-0.7588,-0.7569,-0.754,-0.7521,-0.749,-0.7465,-0.7415,-0.7398,-0.7369,-0.7367,-0.7345,-0.7363,-0.7366,-0.7366,-0.7368,-0.7365,-0.7341,-0.734,-0.734,-0.7339,0,-0.7672,-0.7668,-0.7642,-0.7615,-0.7594,-0.7572,-0.755,-0.7536,-0.7522,-0.7501,-0.747,-0.7451,-0.7412,-0.7381,-0.7351,-0.7336,-0.7335,-0.7334,-0.7327,-0.7328,-0.7334,-0.733,-0.7398,-0.7335,-0.7336,-0.7336,-0.7336,-0.7336,-0.7635,-0.7614,-0.7592,-0.7564,-0.7547,-0.7526,-0.7505,-0.7491,-0.7465,-0.7434,-0.7429,-0.7396,-0.7373,-0.7332,-0.7316,-0.729,-0.7295,-0.7285,-0.7282,-0.728,-0.7278,-0.734,-0.7284,-0.7284,-0.7284,-0.7285,-0.7285,0,-0.7581,-0.7567,-0.7542,-0.7512,-0.749,-0.7493,-0.7469,-0.745,-0.7421,-0.74,-0.7376,-0.734,-0.7311,-0.7292,-0.7262,-0.7245,-0.7243,-0.7237,-0.7238,-0.7234,-0.7275,-0.7284,-0.7239,-0.7239,-0.7239,-0.7239,-0.7239,-0.7239,-0.755,-0.7514,-0.7508,-0.7463,-0.7449,-0.7418,-0.7404,-0.7385,-0.7368,-0.7329,-0.7305,-0.7294,-0.7273,-0.7242,-0.7215,-0.7211,-0.7199,-0.7193,-0.7188,-0.7226,-0.7231,-0.7236,-0.7244,-0.719,-0.719,-0.7149,-0.7148,-0.7148]}]]